This demonstration page uses our WeatherBlox Daily Observations layout. Learn more.

Left ArrowRight Arrow

39.29038, -76.61219

Hourly Observations for April 2, 2022

Temp ( °F °C ) Dew Point ( °F °C ) Humidity (%) Winds ( mph kmh ) Pressure ( in mb ) Visibility ( mi km ) Precip ( " mm )
12:54 am 00:54 Mostly Cloudy 45 7.2 26 -3.3 48 48 WNW 10 17 30.07 1018 10 16 0.00 0.00
1:54 am 01:54 Mostly Cloudy 44 6.7 23 -5 43 43 NW 6 9 30.09 1019 10 16 0.00 0.00
2:54 am 02:54 Partly Cloudy 41 5 23 -5 49 49 WNW 12 19 30.10 1019 10 16 0.00 0.00
3:54 am 03:54 Mostly Clear 41 5 22 -5.6 47 47 WNW 13 20 30.10 1019 10 16 0.00 0.00
4:54 am 04:54 Mostly Clear 38 3.3 22 -5.6 52 52 WNW 6 9 30.11 1020 10 16 0.00 0.00
5:54 am 05:54 Partly Cloudy 38 3.3 22 -5.6 52 52 W 5 7 30.12 1020 10 16 0.00 0.00
6:54 am 06:54 Partly Cloudy 36 2.2 23 -5 59 59 WNW 7 11 30.14 1021 10 16 0.00 0.00
7:54 am 07:54 Partly Cloudy 40 4.4 25 -3.9 55 55 W 5 7 30.17 1022 10 16 0.00 0.00
8:54 am 08:54 Partly Cloudy 43 6.1 24 -4.4 47 47 NNW 9 15 30.17 1022 10 16 0.00 0.00
9:54 am 09:54 Partly Cloudy 45 7.2 24 -4.4 44 44 NW 9 15 30.18 1022 10 16 0.00 0.00
10:54 am 10:54 Partly Cloudy 47 8.3 24 -4.4 41 41 WNW 7 11 30.16 1022 10 16 0.00 0.00
11:54 am 11:54 Mostly Sunny 50 10 25 -3.9 38 38 VRB 3 6 30.14 1021 10 16 0.00 0.00
12:54 pm 12:54 Mostly Sunny 51 10.6 24 -4.4 35 35 VRB 5 7 30.11 1020 10 16 0.00 0.00
1:54 pm 13:54 Mostly Sunny 54 12.2 26 -3.3 34 34 SW 7 11 30.07 1018 10 16 0.00 0.00
2:54 pm 14:54 Sunny 54 12.2 24 -4.4 31 31 SE 6 9 30.03 1017 10 16 0.00 0.00
3:54 pm 15:54 Mostly Sunny 56 13.3 24 -4.4 29 29 Calm 30.01 1016 10 16 0.00 0.00
4:54 pm 16:54 Mostly Cloudy 57 13.9 25 -3.9 29 29 VRB 3 6 29.98 1015 10 16 0.00 0.00
5:54 pm 17:54 Partly Cloudy 55 12.8 28 -2.2 35 35 SSE 8 13 29.98 1015 10 16 0.00 0.00
6:54 pm 18:54 Partly Cloudy 52 11.1 28 -2.2 40 40 SE 10 17 29.97 1015 10 16 0.00 0.00
7:54 pm 19:54 Mostly Cloudy 49 9.4 28 -2.2 44 44 SE 6 9 29.97 1015 10 16 0.00 0.00
8:54 pm 20:54 Cloudy 48 8.9 28 -2.2 46 46 ESE 5 7 29.96 1015 10 16 0.00 0.00
9:54 pm 21:54 Mostly Cloudy 47 8.3 32 0 56 56 SE 3 6 29.96 1015 10 16 0.00 0.00
10:54 pm 22:54 Cloudy 46 7.8 31 -0.6 56 56 SSE 3 6 29.94 1014 10 16 0.00 0.00
11:54 pm 23:54 Cloudy 46 7.8 32 0 58 58 SSE 5 7 29.92 1013 10 16 0.00 0.00

Powered by AerisWeather